Content
SEND FEEDBACK

Daily
Averages
Monthly
Summary
United States of America

WASHINGTON, INDIANA


Home > North America > United States > Indiana
Elevation: 167 meters     Latitude: 38 40N     Longitude: 087 10W

WEATHER
 
SELECT A DAY
Number of Records: 431,506;   Date Range: 1/1/95 - 7/26/14
 
SHARE

PRINT THIS DATA

[ ← Previous Day ]
WEATHER ALMANAC - 31 JANUARY, 2013
[ Next Day → ]
[ °F ]   °C
Weather ElementAverageHighLow
Temperature-1.7 °C1 °C (1:55 pm)-8 °C (10:35 pm)
Dewpoint-7.8 °C-3 °C (7:15 pm)-13 °C (9:55 pm)
Humidity63.9 %86 % (7:15 pm)55 % (12:55 pm)
Barometer1015.6 hPa1023.4 hPa (11:35 pm)1010.2 hPa (12:35 am)
Wind Speed32 km/h48.1 km/h (1:55 am)
Wind Gust59.2 km/h (12:35 am)
Weather ElementAverage
Visibility15.3 km
Wind DirectionW (269.3 °)

Weather ElementTotal
Precipitation---
Heating Degree Days21.8 (Base 18.3)
Averaged from 60 records on 31 January, 2013
WEATHER CONDITIONS BREAKOUT
WIND DIRECTION BREAKOUT
WEATHER BY HOUR - 31 JANUARY, 2013
[ °F ]   °C
Local TimeTemperatureDewpointHumidityBarometerVisibilityWind DirectionWind SpeedGust SpeedPrecipitationEventsConditions
12:35 AM-1 °C-7 °C64 %1010.2 hPa16.1 kmWNW (290°)44.4 km/h59.2 km/hOvercast
12:55 AM-1 °C-8 °C60 %1010.5 hPa16.1 kmWest (280°)35.2 km/h48.1 km/hOvercast
1:15 AM-1 °C-7 °C64 %1010.8 hPa16.1 kmWest (270°)33.3 km/h40.7 km/hOvercast
1:35 AM-1 °C-7 °C64 %1011.2 hPa16.1 kmWest (270°)38.9 km/h51.8 km/hOvercast
1:55 AM-1 °C-8 °C60 %1011.5 hPa16.1 kmWest (280°)48.1 km/h59.2 km/hOvercast
2:15 AM-1 °C-8 °C60 %1011.9 hPa16.1 kmWest (280°)33.3 km/h46.3 km/hOvercast
2:35 AM-1 °C-8 °C60 %1011.9 hPa16.1 kmWest (280°)29.6 km/h40.7 km/hOvercast
2:55 AM-1 °C-7 °C64 %1012.2 hPa16.1 kmWest (270°)33.3 km/h40.7 km/hOvercast
3:15 AM-1 °C-7 °C64 %1012.2 hPa16.1 kmWest (270°)40.7 km/h55.5 km/hOvercast
3:35 AM-2 °C-8 °C64 %1012.5 hPa16.1 kmWest (270°)35.2 km/h46.3 km/hOvercast
4:15 AM-2 °C-8 °C64 %1012.2 hPa16.1 kmWest (270°)42.6 km/h53.8 km/hOvercast
4:35 AM-2 °C-8 °C64 %1012.5 hPa16.1 kmWest (280°)42.6 km/h55.5 km/hOvercast
4:55 AM-2 °C-8 °C64 %1012.9 hPa16.1 kmWest (280°)48.1 km/h55.5 km/hOvercast
5:15 AM-2 °C-9 °C59 %1012.9 hPa16.1 kmWest (280°)42.6 km/h55.5 km/hOvercast
5:35 AM-2 °C-9 °C59 %1013.2 hPa16.1 kmWest (270°)38.9 km/h50.1 km/hOvercast
5:55 AM-2 °C-9 °C59 %1013.5 hPa16.1 kmWest (280°)33.3 km/hOvercast
6:15 AM-2 °C-8 °C64 %1013.5 hPa16.1 kmWest (280°)31.5 km/h40.7 km/hOvercast
6:35 AM-2 °C-8 °C64 %1013.9 hPa16.1 kmWest (270°)27.8 km/h33.3 km/hOvercast
6:55 AM-2 °C-8 °C64 %1014.2 hPa16.1 kmWest (280°)35.2 km/h44.4 km/hMostly Cloudy
7:15 AM-3 °C-8 °C69 %1014.2 hPa16.1 kmWest (280°)31.5 km/hMostly Cloudy
7:55 AM-3 °C-9 °C64 %1014.6 hPa16.1 kmWest (270°)25.9 km/h42.6 km/hOvercast
8:15 AM-2 °C-9 °C59 %1014.9 hPa16.1 kmWest (260°)27.8 km/hOvercast
8:35 AM-2 °C-9 °C59 %1015.2 hPa16.1 kmWest (270°)22.2 km/hMostly Cloudy
8:55 AM-2 °C-8 °C64 %1015.6 hPa16.1 kmWest (270°)25.9 km/h33.3 km/hOvercast
9:15 AM-2 °C-8 °C64 %1015.9 hPa16.1 kmWSW (250°)24.1 km/hOvercast
9:35 AM-2 °C-8 °C64 %1015.9 hPa16.1 kmWSW (250°)24.1 km/h33.3 km/hMostly Cloudy
9:55 AM-2 °C-8 °C64 %1016.3 hPa16.1 kmWSW (240°)20.4 km/hScattered Clouds
10:35 AM-2 °C-7 °C69 %1016.6 hPa14.5 kmSW (230°)18.5 km/hMostly Cloudy
10:55 AM-2 °C-6 °C74 %1016.6 hPa16.1 kmSW (220°)20.4 km/h29.6 km/hMostly Cloudy
11:15 AM-1 °C-7 °C64 %1016.6 hPa16.1 kmWSW (240°)27.8 km/hMostly Cloudy
11:35 AM-1 °C-8 °C60 %1017.3 hPa16.1 kmWest (260°)35.2 km/h40.7 km/hOvercast
11:55 AM-1 °C-8 °C60 %1017.3 hPa16.1 kmWSW (250°)27.8 km/h42.6 km/hOvercast
12:15 PM-1 °C-8 °C60 %1016.9 hPa16.1 kmWSW (250°)27.8 km/h42.6 km/hOvercast
12:55 PM0 °C-8 °C55 %1016.6 hPa16.1 kmWest (260°)35.2 km/h42.6 km/hOvercast
1:15 PM0 °C-7 °C60 %1016.6 hPa16.1 kmWSW (250°)38.9 km/h44.4 km/hOvercast
1:35 PM0 °C-7 °C60 %1016.3 hPa16.1 kmWest (260°)35.2 km/h44.4 km/hOvercast
1:55 PM1 °C-7 °C56 %1015.9 hPa16.1 kmWSW (250°)33.3 km/h42.6 km/hMostly Cloudy
2:15 PM1 °C-7 °C56 %1015.9 hPa16.1 kmWSW (250°)27.8 km/h38.9 km/hOvercast
2:35 PM1 °C-6 °C60 %1015.6 hPa16.1 kmWSW (240°)29.6 km/h38.9 km/hMostly Cloudy
3:15 PM1 °C-6 °C60 %1015.2 hPa16.1 kmWest (260°)29.6 km/h37 km/hOvercast
3:35 PM1 °C-7 °C56 %1015.6 hPa16.1 kmWSW (250°)31.5 km/h40.7 km/hOvercast
3:55 PM1 °C-7 °C56 %1015.2 hPa16.1 kmWest (260°)38.9 km/h48.1 km/hOvercast
4:15 PM1 °C-7 °C56 %1015.6 hPa16.1 kmWest (280°)27.8 km/h50.1 km/hMostly Cloudy
4:35 PM1 °C-6 °C60 %1015.6 hPa16.1 kmWest (260°)29.6 km/h40.7 km/hMostly Cloudy
4:55 PM1 °C-6 °C60 %1015.6 hPa16.1 kmWest (260°)24.1 km/hMostly Cloudy
5:15 PM1 °C-6 °C60 %1015.6 hPa16.1 kmWest (270°)27.8 km/h38.9 km/hMostly Cloudy
5:35 PM1 °C-6 °C60 %1015.9 hPa16.1 kmWest (260°)29.6 km/h37 km/hMostly Cloudy
5:55 PM1 °C-6 °C60 %1015.9 hPa16.1 kmWest (260°)35.2 km/h44.4 km/hScattered Clouds
6:15 PM0 °C-5 °C69 %1015.9 hPa16.1 kmWest (260°)27.8 km/hScattered Clouds
6:35 PM-1 °C-4 °C80 %1015.9 hPa8 kmWest (270°)25.9 km/hOvercast
7:15 PM-1 °C-3 °C86 %1016.3 hPa3.2 kmWSW (250°)22.2 km/hOvercast
7:35 PM-1 °C-3 °C86 %1016.3 hPa4.8 kmWest (260°)24.1 km/h33.3 km/hOvercast
8:15 PM-3 °C-6 °C80 %1017.3 hPa3.2 kmNW (310°)37 km/h53.8 km/hOvercast
9:15 PM-6 °C-9 °C80 %1019.6 hPa14.5 kmWNW (300°)33.3 km/h53.8 km/hMostly Cloudy
9:35 PM-6 °C-11 °C68 %1020 hPa16.1 kmWNW (300°)27.8 km/h38.9 km/hMostly Cloudy
9:55 PM-7 °C-13 °C63 %1020.7 hPa16.1 kmNW (310°)42.6 km/h53.8 km/hMostly Cloudy
10:15 PM-7 °C-13 °C63 %1021.3 hPa16.1 kmNW (310°)31.5 km/h50.1 km/hPartly Cloudy
10:35 PM-8 °C-13 °C68 %1022 hPa16.1 kmNW (320°)35.2 km/h44.4 km/hPartly Cloudy
11:15 PM-8 °C-13 °C68 %1022.7 hPa14.5 kmNW (310°)29.6 km/h35.2 km/hMostly Cloudy
11:35 PM-8 °C-13 °C68 %1023.4 hPa16.1 kmWNW (300°)35.2 km/h44.4 km/hOvercast
Hourly data recorded from KHNB, located 0 kilometers away from Washington, Indiana







STORIES FROM OUR PARTNERS